Time,TemperatureF,DewpointF,PressureIn,WindDirection,WindDirectionDegrees,WindSpeedMPH,WindSpeedGustMPH,Humidity,HourlyPrecipIn,Conditions,Clouds,dailyrainin,SoftwareType,DateUTC
2013-03-29 00:01:00,51.6,48.1,30.31,SSW,202,0.0,0.0,88,0.00,,,0.00,WUHU21623XXSP,2013-03-29 07:01:00,
2013-03-29 00:06:00,51.6,48.1,30.31,SSW,202,0.0,0.0,88,0.00,,,0.00,WUHU21623XXSP,2013-03-29 07:06:00,
2013-03-29 00:11:00,51.6,48.1,30.31,SSW,202,0.0,0.0,88,0.00,,,0.00,WUHU21623XXSP,2013-03-29 07:11:00,
2013-03-29 00:16:00,51.6,48.1,30.31,SSW,202,0.0,0.0,88,0.00,,,0.00,WUHU21623XXSP,2013-03-29 07:16:00,
2013-03-29 00:21:00,51.4,47.9,30.30,SSW,202,0.0,0.0,88,0.00,,,0.00,WUHU21623XXSP,2013-03-29 07:21:00,
2013-03-29 00:26:00,51.4,47.9,30.30,SSW,202,0.0,0.0,88,0.00,,,0.00,WUHU21623XXSP,2013-03-29 07:26:00,
2013-03-29 00:31:00,51.4,47.9,30.31,SSW,202,0.0,0.0,88,0.00,,,0.00,WUHU21623XXSP,2013-03-29 07:31:00,
2013-03-29 00:37:00,51.3,47.8,30.30,SSW,202,0.0,0.0,88,0.00,,,0.00,WUHU21623XXSP,2013-03-29 07:37:00,
2013-03-29 00:42:00,51.3,47.8,30.30,SSW,202,0.0,0.0,88,0.00,,,0.00,WUHU21623XXSP,2013-03-29 07:42:00,
2013-03-29 00:47:00,51.1,47.6,30.30,SSW,202,0.0,0.0,88,0.00,,,0.00,WUHU21623XXSP,2013-03-29 07:47:00,
2013-03-29 00:52:00,51.1,47.6,30.30,SSW,202,0.0,0.0,88,0.00,,,0.00,WUHU21623XXSP,2013-03-29 07:52:00,
2013-03-29 00:57:00,50.9,47.4,30.30,SSW,202,0.0,0.0,88,0.00,,,0.00,WUHU21623XXSP,2013-03-29 07:57:00,
2013-03-29 01:02:00,50.7,47.2,30.30,SSW,202,0.0,0.0,88,0.00,,,0.00,WUHU21623XXSP,2013-03-29 08:02:00,
2013-03-29 01:07:00,50.7,47.2,30.30,SSW,202,0.0,0.0,88,0.00,,,0.00,WUHU21623XXSP,2013-03-29 08:07:00,
2013-03-29 01:12:00,50.5,47.4,30.30,SSW,202,0.0,0.0,89,0.00,,,0.00,WUHU21623XXSP,2013-03-29 08:12:00,
2013-03-29 01:17:00,50.4,47.4,30.31,SSW,202,0.0,0.0,89,0.00,,,0.00,WUHU21623XXSP,2013-03-29 08:17:00,
2013-03-29 01:22:00,50.4,47.2,30.31,SSW,202,0.0,0.0,89,0.00,,,0.00,WUHU21623XXSP,2013-03-29 08:22:00,
2013-03-29 01:27:00,50.4,47.2,30.31,SSW,202,0.0,0.0,89,0.00,,,0.00,WUHU21623XXSP,2013-03-29 08:27:00,
2013-03-29 01:32:00,50.4,47.2,30.31,SSW,202,0.0,0.0,89,0.00,,,0.00,WUHU21623XXSP,2013-03-29 08:32:00,
2013-03-29 01:37:00,50.4,47.2,30.31,SSW,202,0.0,0.0,89,0.00,,,0.00,WUHU21623XXSP,2013-03-29 08:37:00,
2013-03-29 01:42:00,50.2,47.2,30.31,SSW,202,0.0,0.0,89,0.00,,,0.00,WUHU21623XXSP,2013-03-29 08:42:00,
2013-03-29 01:47:00,50.2,47.0,30.31,SSW,202,0.0,0.0,89,0.00,,,0.00,WUHU21623XXSP,2013-03-29 08:47:00,
2013-03-29 01:52:00,50.2,47.0,30.31,SSW,202,0.0,0.0,89,0.00,,,0.00,WUHU21623XXSP,2013-03-29 08:52:00,
2013-03-29 01:57:00,50.2,47.0,30.32,SSW,202,0.0,0.0,89,0.00,,,0.00,WUHU21623XXSP,2013-03-29 08:57:00,
2013-03-29 02:02:00,50.2,47.0,30.31,SSW,202,0.0,0.0,89,0.00,,,0.00,WUHU21623XXSP,2013-03-29 09:02:00,
2013-03-29 02:07:00,50.2,47.0,30.31,SSW,202,0.0,0.0,89,0.00,,,0.00,WUHU21623XXSP,2013-03-29 09:07:00,
2013-03-29 02:12:00,50.2,47.0,30.31,SSW,202,0.0,0.0,89,0.00,,,0.00,WUHU21623XXSP,2013-03-29 09:12:00,
2013-03-29 02:17:00,49.8,46.6,30.31,SSW,202,0.0,0.0,89,0.00,,,0.00,WUHU21623XXSP,2013-03-29 09:17:00,
2013-03-29 02:22:00,49.8,46.6,30.31,SSW,202,0.0,0.0,89,0.00,,,0.00,WUHU21623XXSP,2013-03-29 09:22:00,
2013-03-29 02:27:00,49.8,46.6,30.31,SSW,202,0.0,0.0,89,0.00,,,0.00,WUHU21623XXSP,2013-03-29 09:27:00,
2013-03-29 02:32:00,49.8,46.6,30.31,SSW,202,0.0,0.0,89,0.00,,,0.00,WUHU21623XXSP,2013-03-29 09:32:00,
2013-03-29 02:37:00,49.8,46.6,30.31,SSW,202,0.0,0.0,89,0.00,,,0.00,WUHU21623XXSP,2013-03-29 09:37:00,
2013-03-29 02:42:00,49.8,46.6,30.31,SSW,202,0.0,0.0,89,0.00,,,0.00,WUHU21623XXSP,2013-03-29 09:42:00,
2013-03-29 02:47:00,49.8,46.6,30.32,SSW,202,0.0,0.0,89,0.00,,,0.00,WUHU21623XXSP,2013-03-29 09:47:00,
2013-03-29 02:52:00,49.8,46.6,30.33,WSW,247,0.0,0.0,89,0.00,,,0.00,WUHU21623XXSP,2013-03-29 09:52:00,
2013-03-29 02:57:00,49.8,46.6,30.32,WSW,247,0.0,0.0,89,0.00,,,0.00,WUHU21623XXSP,2013-03-29 09:57:00,
2013-03-29 03:02:00,49.8,46.6,30.32,SSW,202,0.0,0.0,89,0.00,,,0.00,WUHU21623XXSP,2013-03-29 10:02:00,
2013-03-29 03:07:00,49.8,46.6,30.32,NW,315,0.0,0.0,89,0.00,,,0.00,WUHU21623XXSP,2013-03-29 10:07:00,
2013-03-29 03:13:00,49.8,47.0,30.32,NW,315,0.0,0.0,90,0.00,,,0.00,WUHU21623XXSP,2013-03-29 10:13:00,
2013-03-29 03:18:00,49.8,47.0,30.32,NW,315,0.0,0.0,90,0.00,,,0.00,WUHU21623XXSP,2013-03-29 10:18:00,
2013-03-29 03:23:00,49.8,47.0,30.32,NW,315,0.0,0.0,90,0.00,,,0.00,WUHU21623XXSP,2013-03-29 10:23:00,
2013-03-29 03:28:00,49.6,46.8,30.31,NW,315,0.0,0.0,90,0.00,,,0.00,WUHU21623XXSP,2013-03-29 10:28:00,
2013-03-29 03:33:00,49.6,46.8,30.31,NW,315,0.0,0.0,90,0.00,,,0.00,WUHU21623XXSP,2013-03-29 10:33:00,
2013-03-29 03:38:00,49.6,46.8,30.31,NW,315,0.0,0.0,90,0.00,,,0.00,WUHU21623XXSP,2013-03-29 10:38:00,
2013-03-29 03:43:00,49.6,46.8,30.31,NW,315,0.0,0.0,90,0.00,,,0.00,WUHU21623XXSP,2013-03-29 10:43:00,
2013-03-29 03:48:00,49.6,46.8,30.31,NW,315,0.0,0.0,90,0.00,,,0.00,WUHU21623XXSP,2013-03-29 10:48:00,
2013-03-29 03:53:00,49.6,46.8,30.31,NW,315,0.0,0.0,90,0.00,,,0.00,WUHU21623XXSP,2013-03-29 10:53:00,
2013-03-29 03:58:00,49.8,47.0,30.32,NW,315,0.0,0.0,90,0.00,,,0.00,WUHU21623XXSP,2013-03-29 10:58:00,
2013-03-29 04:03:00,49.8,47.0,30.31,NW,315,0.0,0.0,90,0.00,,,0.00,WUHU21623XXSP,2013-03-29 11:03:00,
2013-03-29 04:08:00,49.8,47.0,30.32,NW,315,0.0,0.0,90,0.00,,,0.00,WUHU21623XXSP,2013-03-29 11:08:00,
2013-03-29 04:13:00,49.8,47.0,30.32,NW,315,0.0,0.0,90,0.00,,,0.00,WUHU21623XXSP,2013-03-29 11:13:00,
2013-03-29 04:18:00,49.6,46.8,30.32,NW,315,0.0,0.0,90,0.00,,,0.00,WUHU21623XXSP,2013-03-29 11:18:00,
2013-03-29 04:23:00,49.6,46.8,30.32,NW,315,0.0,0.0,90,0.00,,,0.00,WUHU21623XXSP,2013-03-29 11:23:00,
2013-03-29 04:28:00,49.6,46.8,30.32,NW,315,0.0,0.0,90,0.00,,,0.00,WUHU21623XXSP,2013-03-29 11:28:00,
2013-03-29 04:33:00,49.6,46.8,30.32,NW,315,0.0,0.0,90,0.00,,,0.00,WUHU21623XXSP,2013-03-29 11:33:00,
2013-03-29 04:38:00,49.6,46.8,30.32,NW,315,0.0,0.0,90,0.00,,,0.00,WUHU21623XXSP,2013-03-29 11:38:00,
2013-03-29 04:43:00,49.6,46.8,30.32,NW,315,0.0,0.0,90,0.00,,,0.00,WUHU21623XXSP,2013-03-29 11:43:00,
2013-03-29 04:48:00,49.6,46.8,30.32,NW,315,0.0,0.0,90,0.00,,,0.00,WUHU21623XXSP,2013-03-29 11:48:00,
2013-03-29 04:53:00,49.6,46.8,30.32,NW,315,0.0,0.0,90,0.00,,,0.00,WUHU21623XXSP,2013-03-29 11:53:00,
2013-03-29 04:58:00,49.6,46.8,30.32,NW,315,0.0,0.0,90,0.00,,,0.00,WUHU21623XXSP,2013-03-29 11:58:00,
2013-03-29 05:03:00,49.6,46.8,30.32,NW,315,0.0,0.0,90,0.00,,,0.00,WUHU21623XXSP,2013-03-29 12:03:00,
2013-03-29 05:08:00,49.6,46.8,30.32,NW,315,0.0,0.0,90,0.00,,,0.00,WUHU21623XXSP,2013-03-29 12:08:00,
2013-03-29 05:13:00,49.6,46.8,30.33,NW,315,0.0,0.0,90,0.00,,,0.00,WUHU21623XXSP,2013-03-29 12:13:00,
2013-03-29 05:18:00,49.6,46.8,30.32,NW,315,0.0,0.0,90,0.00,,,0.00,WUHU21623XXSP,2013-03-29 12:18:00,
2013-03-29 05:23:00,49.5,46.6,30.33,NW,315,0.0,0.0,90,0.00,,,0.00,WUHU21623XXSP,2013-03-29 12:23:00,
2013-03-29 05:28:00,49.3,46.5,30.32,NW,315,0.0,0.0,90,0.00,,,0.00,WUHU21623XXSP,2013-03-29 12:28:00,
2013-03-29 05:33:00,49.3,46.5,30.32,NW,315,0.0,0.0,90,0.00,,,0.00,WUHU21623XXSP,2013-03-29 12:33:00,
2013-03-29 05:38:00,49.3,46.5,30.32,NW,315,0.0,0.0,90,0.00,,,0.00,WUHU21623XXSP,2013-03-29 12:38:00,
2013-03-29 05:43:00,49.3,46.5,30.32,NW,315,0.0,0.0,90,0.00,,,0.00,WUHU21623XXSP,2013-03-29 12:43:00,
2013-03-29 05:49:00,49.3,46.5,30.33,NW,315,0.0,0.0,90,0.00,,,0.00,WUHU21623XXSP,2013-03-29 12:49:00,
2013-03-29 05:54:00,49.3,46.5,30.33,NW,315,0.0,0.0,90,0.00,,,0.00,WUHU21623XXSP,2013-03-29 12:54:00,
2013-03-29 05:59:00,49.1,46.3,30.33,NW,315,0.0,0.0,90,0.00,,,0.00,WUHU21623XXSP,2013-03-29 12:59:00,
2013-03-29 06:04:00,49.1,46.3,30.33,NW,315,0.0,0.0,90,0.00,,,0.00,WUHU21623XXSP,2013-03-29 13:04:00,
2013-03-29 06:09:00,49.1,46.3,30.33,NW,315,0.0,0.0,90,0.00,,,0.00,WUHU21623XXSP,2013-03-29 13:09:00,
2013-03-29 06:14:00,49.3,46.5,30.33,NW,315,0.0,0.0,90,0.00,,,0.00,WUHU21623XXSP,2013-03-29 13:14:00,
2013-03-29 06:19:00,49.1,46.3,30.33,NW,315,0.0,0.0,90,0.00,,,0.00,WUHU21623XXSP,2013-03-29 13:19:00,
2013-03-29 06:24:00,49.1,46.3,30.33,NW,315,0.0,0.0,90,0.00,,,0.00,WUHU21623XXSP,2013-03-29 13:24:00,
2013-03-29 06:29:00,49.3,46.5,30.33,NW,315,0.0,0.0,90,0.00,,,0.00,WUHU21623XXSP,2013-03-29 13:29:00,
2013-03-29 06:34:00,49.1,46.3,30.33,NW,315,0.0,0.0,90,0.00,,,0.00,WUHU21623XXSP,2013-03-29 13:34:00,
2013-03-29 06:39:00,49.1,46.3,30.34,NW,315,0.0,0.0,90,0.00,,,0.00,WUHU21623XXSP,2013-03-29 13:39:00,
2013-03-29 06:44:00,49.1,46.3,30.34,NW,315,0.0,0.0,90,0.00,,,0.00,WUHU21623XXSP,2013-03-29 13:44:00,
2013-03-29 06:49:00,49.1,46.3,30.33,NW,315,0.0,0.0,90,0.00,,,0.00,WUHU21623XXSP,2013-03-29 13:49:00,
2013-03-29 06:54:00,49.1,46.3,30.34,NW,315,0.0,0.0,90,0.00,,,0.00,WUHU21623XXSP,2013-03-29 13:54:00,
2013-03-29 06:59:00,49.1,46.3,30.34,NW,315,0.0,0.0,90,0.00,,,0.00,WUHU21623XXSP,2013-03-29 13:59:00,
2013-03-29 07:04:00,49.1,46.3,30.34,NW,315,0.0,0.0,90,0.00,,,0.00,WUHU21623XXSP,2013-03-29 14:04:00,
2013-03-29 07:09:00,49.1,46.3,30.34,NW,315,0.0,0.0,90,0.00,,,0.00,WUHU21623XXSP,2013-03-29 14:09:00,
2013-03-29 07:14:00,49.3,46.5,30.34,NW,315,0.0,0.0,90,0.00,,,0.00,WUHU21623XXSP,2013-03-29 14:14:00,
2013-03-29 07:19:00,49.1,46.3,30.34,NW,315,0.0,0.0,90,0.00,,,0.00,WUHU21623XXSP,2013-03-29 14:19:00,
2013-03-29 07:24:00,49.1,46.3,30.34,NW,315,0.0,0.0,90,0.00,,,0.00,WUHU21623XXSP,2013-03-29 14:24:00,
2013-03-29 07:29:00,49.1,46.3,30.34,NW,315,0.0,0.0,90,0.00,,,0.00,WUHU21623XXSP,2013-03-29 14:29:00,
2013-03-29 07:34:00,48.9,46.1,30.34,NW,315,0.0,0.0,90,0.00,,,0.00,WUHU21623XXSP,2013-03-29 14:34:00,
2013-03-29 07:39:00,49.1,46.3,30.34,NW,315,0.0,0.0,90,0.00,,,0.00,WUHU21623XXSP,2013-03-29 14:39:00,
2013-03-29 07:44:00,49.1,46.3,30.34,NW,315,0.0,0.0,90,0.00,,,0.00,WUHU21623XXSP,2013-03-29 14:44:00,
2013-03-29 07:49:00,49.1,46.3,30.34,NW,315,0.0,0.0,90,0.00,,,0.00,WUHU21623XXSP,2013-03-29 14:49:00,
2013-03-29 07:54:00,49.1,46.3,30.35,NW,315,0.0,0.0,90,0.00,,,0.00,WUHU21623XXSP,2013-03-29 14:54:00,
2013-03-29 07:59:00,49.1,46.3,30.34,NW,315,0.0,0.0,90,0.00,,,0.00,WUHU21623XXSP,2013-03-29 14:59:00,
2013-03-29 08:04:00,49.1,46.3,30.35,NW,315,0.0,0.0,90,0.00,,,0.00,WUHU21623XXSP,2013-03-29 15:04:00,
2013-03-29 08:09:00,49.3,46.5,30.34,NW,315,0.0,0.0,90,0.00,,,0.00,WUHU21623XXSP,2013-03-29 15:09:00,
2013-03-29 08:14:00,49.3,46.5,30.35,NW,315,0.0,0.0,90,0.00,,,0.00,WUHU21623XXSP,2013-03-29 15:14:00,
2013-03-29 08:19:00,49.3,46.5,30.35,NW,315,0.0,0.0,90,0.00,,,0.00,WUHU21623XXSP,2013-03-29 15:19:00,
2013-03-29 08:24:00,49.6,46.8,30.35,NW,315,0.0,0.0,90,0.00,,,0.00,WUHU21623XXSP,2013-03-29 15:24:00,
2013-03-29 08:29:00,49.8,46.8,30.35,NW,315,0.0,0.0,90,0.00,,,0.00,WUHU21623XXSP,2013-03-29 15:29:00,
2013-03-29 08:34:00,49.8,47.0,30.35,NW,315,0.0,0.0,90,0.00,,,0.00,WUHU21623XXSP,2013-03-29 15:34:00,
2013-03-29 08:39:00,49.8,47.0,30.35,NW,315,0.0,0.0,90,0.00,,,0.00,WUHU21623XXSP,2013-03-29 15:39:00,
2013-03-29 08:44:00,49.8,47.0,30.35,NW,315,0.0,0.0,90,0.00,,,0.00,WUHU21623XXSP,2013-03-29 15:44:00,
2013-03-29 08:49:00,50.2,47.3,30.35,NW,315,0.0,0.0,90,0.00,,,0.00,WUHU21623XXSP,2013-03-29 15:49:00,
2013-03-29 08:54:00,50.4,47.5,30.36,NW,315,0.0,0.0,90,0.00,,,0.00,WUHU21623XXSP,2013-03-29 15:54:00,
2013-03-29 08:59:00,50.5,47.7,30.35,NW,315,0.0,0.0,90,0.00,,,0.00,WUHU21623XXSP,2013-03-29 15:59:00,
2013-03-29 09:04:00,50.7,47.8,30.36,NW,315,0.0,0.0,90,0.00,,,0.00,WUHU21623XXSP,2013-03-29 16:04:00,
2013-03-29 09:09:00,50.7,48.1,30.36,NW,315,0.0,0.0,91,0.00,,,0.00,WUHU21623XXSP,2013-03-29 16:09:00,
2013-03-29 09:14:00,50.9,48.3,30.36,NW,315,0.0,0.0,91,0.00,,,0.00,WUHU21623XXSP,2013-03-29 16:14:00,
2013-03-29 09:19:00,51.1,48.5,30.36,NW,315,0.0,0.0,91,0.00,,,0.00,WUHU21623XXSP,2013-03-29 16:19:00,
2013-03-29 09:24:00,51.1,48.5,30.36,NW,315,0.0,0.0,91,0.00,,,0.00,WUHU21623XXSP,2013-03-29 16:24:00,
2013-03-29 09:29:00,51.3,48.7,30.36,NW,315,0.0,0.0,91,0.00,,,0.00,WUHU21623XXSP,2013-03-29 16:29:00,
2013-03-29 09:34:00,51.6,49.0,30.36,NW,315,0.0,0.0,91,0.00,,,0.00,WUHU21623XXSP,2013-03-29 16:34:00,
2013-03-29 09:39:00,51.6,49.0,30.36,NW,315,0.0,0.0,91,0.00,,,0.00,WUHU21623XXSP,2013-03-29 16:39:00,
2013-03-29 09:44:00,51.8,49.2,30.36,NW,315,0.0,0.0,91,0.00,,,0.00,WUHU21623XXSP,2013-03-29 16:44:00,
2013-03-29 09:50:00,51.8,48.9,30.36,NW,315,0.0,0.0,90,0.00,,,0.00,WUHU21623XXSP,2013-03-29 16:50:00,
2013-03-29 09:55:00,51.8,48.9,30.36,NW,315,0.0,0.0,90,0.00,,,0.00,WUHU21623XXSP,2013-03-29 16:55:00,
2013-03-29 10:00:00,52.0,49.1,30.36,NW,315,0.0,0.0,90,0.00,,,0.00,WUHU21623XXSP,2013-03-29 17:00:00,
2013-03-29 10:05:00,52.0,49.1,30.37,NW,315,0.0,0.0,90,0.00,,,0.00,WUHU21623XXSP,2013-03-29 17:05:00,
2013-03-29 10:10:00,52.0,49.1,30.36,NW,315,0.0,0.0,90,0.00,,,0.00,WUHU21623XXSP,2013-03-29 17:10:00,
2013-03-29 10:15:00,52.0,49.1,30.37,NW,315,0.0,0.0,90,0.00,,,0.00,WUHU21623XXSP,2013-03-29 17:15:00,
2013-03-29 10:20:00,52.0,49.1,30.37,NW,315,0.0,0.0,90,0.00,,,0.00,WUHU21623XXSP,2013-03-29 17:20:00,
2013-03-29 10:25:00,52.2,49.3,30.37,NW,315,0.0,0.0,90,0.00,,,0.00,WUHU21623XXSP,2013-03-29 17:25:00,
2013-03-29 10:30:00,52.0,49.1,30.37,NW,315,0.0,0.0,90,0.00,,,0.00,WUHU21623XXSP,2013-03-29 17:30:00,
2013-03-29 10:35:00,52.0,49.1,30.37,NW,315,0.0,0.0,90,0.00,,,0.00,WUHU21623XXSP,2013-03-29 17:35:00,
2013-03-29 10:40:00,52.2,49.3,30.36,NW,315,0.0,0.0,90,0.00,,,0.00,WUHU21623XXSP,2013-03-29 17:40:00,
2013-03-29 10:45:00,52.2,49.1,30.37,NW,315,0.0,0.0,90,0.00,,,0.00,WUHU21623XXSP,2013-03-29 17:45:00,
2013-03-29 10:50:00,52.3,49.5,30.37,NW,315,0.0,0.0,90,0.00,,,0.00,WUHU21623XXSP,2013-03-29 17:50:00,
2013-03-29 10:55:00,52.5,49.6,30.37,NW,315,0.0,0.0,90,0.00,,,0.00,WUHU21623XXSP,2013-03-29 17:55:00,
2013-03-29 11:00:00,52.5,49.6,30.36,NW,315,0.0,0.0,90,0.00,,,0.00,WUHU21623XXSP,2013-03-29 18:00:00,
2013-03-29 11:05:00,52.9,50.0,30.37,West,270,0.0,0.0,90,0.00,,,0.00,WUHU21623XXSP,2013-03-29 18:05:00,
2013-03-29 11:10:00,53.2,50.0,30.37,West,270,0.0,0.0,90,0.00,,,0.00,WUHU21623XXSP,2013-03-29 18:10:00,
2013-03-29 11:15:00,53.2,50.4,30.37,WSW,247,0.0,0.0,90,0.00,,,0.00,WUHU21623XXSP,2013-03-29 18:15:00,
2013-03-29 11:20:00,53.2,50.1,30.37,West,270,0.0,0.0,89,0.00,,,0.00,WUHU21623XXSP,2013-03-29 18:20:00,
2013-03-29 11:25:00,53.4,50.2,30.37,WSW,247,0.0,0.0,89,0.00,,,0.00,WUHU21623XXSP,2013-03-29 18:25:00,
2013-03-29 11:30:00,53.4,50.2,30.37,NNW,337,0.0,0.0,89,0.00,,,0.00,WUHU21623XXSP,2013-03-29 18:30:00,
2013-03-29 11:35:00,53.4,50.2,30.37,NW,315,0.0,0.0,89,0.00,,,0.00,WUHU21623XXSP,2013-03-29 18:35:00,
2013-03-29 11:40:00,53.8,50.6,30.37,NW,315,0.0,0.0,89,0.00,,,0.00,WUHU21623XXSP,2013-03-29 18:40:00,
2013-03-29 11:45:00,54.0,50.8,30.37,NW,315,0.0,0.0,89,0.00,,,0.00,WUHU21623XXSP,2013-03-29 18:45:00,
2013-03-29 11:50:00,54.1,50.9,30.37,NNW,337,0.0,0.0,89,0.00,,,0.00,WUHU21623XXSP,2013-03-29 18:50:00,
2013-03-29 11:55:00,54.1,50.6,30.37,NNW,337,0.0,0.0,88,0.00,,,0.00,WUHU21623XXSP,2013-03-29 18:55:00,
2013-03-29 12:00:00,54.1,50.6,30.37,NNW,337,0.0,0.0,88,0.00,,,0.00,WUHU21623XXSP,2013-03-29 19:00:00,
2013-03-29 12:05:00,54.1,50.6,30.37,NNW,337,0.0,0.0,88,0.00,,,0.00,WUHU21623XXSP,2013-03-29 19:05:00,
2013-03-29 12:17:00,54.5,51.0,30.37,West,270,0.0,0.0,88,0.00,,,0.00,WUHU21623XXSP,2013-03-29 19:17:00,
2013-03-29 12:22:00,54.5,51.0,30.36,WSW,247,0.0,0.0,88,0.00,,,0.00,WUHU21623XXSP,2013-03-29 19:22:00,
2013-03-29 12:27:00,54.5,50.7,30.36,WSW,247,0.0,0.0,87,0.00,,,0.00,WUHU21623XXSP,2013-03-29 19:27:00,
2013-03-29 12:32:00,54.5,50.8,30.37,WSW,247,0.0,0.0,87,0.00,,,0.00,WUHU21623XXSP,2013-03-29 19:32:00,
2013-03-29 12:37:00,54.5,50.7,30.36,SW,225,0.0,0.0,87,0.00,,,0.00,WUHU21623XXSP,2013-03-29 19:37:00,
2013-03-29 12:42:00,54.5,50.7,30.36,SW,225,0.0,0.0,87,0.00,,,0.00,WUHU21623XXSP,2013-03-29 19:42:00,
2013-03-29 12:47:00,54.7,50.8,30.36,NW,315,0.0,0.0,87,0.00,,,0.00,WUHU21623XXSP,2013-03-29 19:47:00,
2013-03-29 12:52:00,54.7,50.8,30.36,NW,315,0.0,0.0,87,0.00,,,0.00,WUHU21623XXSP,2013-03-29 19:52:00,
2013-03-29 12:57:00,54.9,51.0,30.36,NW,315,0.0,0.0,87,0.00,,,0.00,WUHU21623XXSP,2013-03-29 19:57:00,
2013-03-29 13:02:00,55.2,51.4,30.36,West,270,0.0,0.0,87,0.00,,,0.00,WUHU21623XXSP,2013-03-29 20:02:00,
2013-03-29 13:07:00,55.2,51.4,30.36,West,270,0.0,0.0,87,0.00,,,0.00,WUHU21623XXSP,2013-03-29 20:07:00,
2013-03-29 13:12:00,55.6,51.7,30.36,NW,315,0.0,0.0,87,0.00,,,0.00,WUHU21623XXSP,2013-03-29 20:12:00,
2013-03-29 13:17:00,55.8,51.4,30.36,WNW,292,0.0,0.0,86,0.00,,,0.00,WUHU21623XXSP,2013-03-29 20:17:00,
2013-03-29 13:22:00,55.9,51.8,30.36,NW,315,0.0,0.0,86,0.00,,,0.00,WUHU21623XXSP,2013-03-29 20:22:00,
2013-03-29 13:27:00,56.1,52.3,30.36,North,0,0.0,0.0,87,0.00,,,0.00,WUHU21623XXSP,2013-03-29 20:27:00,
2013-03-29 13:33:00,56.5,52.3,30.36,NW,315,0.0,0.0,86,0.00,,,0.00,WUHU21623XXSP,2013-03-29 20:33:00,
2013-03-29 13:38:00,56.5,52.3,30.35,North,0,0.0,0.0,86,0.00,,,0.00,WUHU21623XXSP,2013-03-29 20:38:00,
2013-03-29 13:43:00,56.7,52.2,30.36,West,270,0.0,0.0,85,0.00,,,0.00,WUHU21623XXSP,2013-03-29 20:43:00,
2013-03-29 13:48:00,56.8,52.3,30.36,WSW,247,0.0,0.0,85,0.00,,,0.00,WUHU21623XXSP,2013-03-29 20:48:00,
2013-03-29 13:53:00,56.8,52.3,30.35,NW,315,0.0,0.0,85,0.00,,,0.00,WUHU21623XXSP,2013-03-29 20:53:00,
2013-03-29 13:58:00,56.8,52.3,30.36,West,270,0.0,0.7,85,0.00,,,0.00,WUHU21623XXSP,2013-03-29 20:58:00,
2013-03-29 14:03:00,57.6,53.4,30.35,WNW,292,0.0,0.7,86,0.00,,,0.00,WUHU21623XXSP,2013-03-29 21:03:00,
2013-03-29 14:08:00,57.7,53.2,30.35,NNW,337,0.0,0.0,85,0.00,,,0.00,WUHU21623XXSP,2013-03-29 21:08:00,
2013-03-29 14:13:00,57.9,53.1,30.35,NW,315,0.0,0.0,84,0.00,,,0.00,WUHU21623XXSP,2013-03-29 21:13:00,
2013-03-29 14:18:00,58.1,53.3,30.35,NNW,337,1.1,1.1,84,0.00,,,0.00,WUHU21623XXSP,2013-03-29 21:18:00,
2013-03-29 14:23:00,58.1,53.3,30.35,NNW,337,1.1,1.1,84,0.00,,,0.00,WUHU21623XXSP,2013-03-29 21:23:00,
2013-03-29 14:28:00,58.1,53.0,30.35,NNW,337,1.1,1.1,83,0.00,,,0.00,WUHU21623XXSP,2013-03-29 21:28:00,
2013-03-29 14:33:00,58.1,53.0,30.35,NNW,337,0.0,1.1,82,0.00,,,0.00,WUHU21623XXSP,2013-03-29 21:33:00,
2013-03-29 14:38:00,59.2,53.7,30.35,NW,315,1.8,1.8,82,0.00,,,0.00,WUHU21623XXSP,2013-03-29 21:38:00,
2013-03-29 14:43:00,59.2,53.7,30.35,NW,315,1.8,1.8,82,0.00,,,0.00,WUHU21623XXSP,2013-03-29 21:43:00,
2013-03-29 14:48:00,59.2,53.7,30.34,NW,315,1.8,1.8,82,0.00,,,0.00,WUHU21623XXSP,2013-03-29 21:48:00,
2013-03-29 14:53:00,59.2,53.7,30.35,NW,315,1.8,1.8,82,0.00,,,0.00,WUHU21623XXSP,2013-03-29 21:53:00,
2013-03-29 14:58:00,59.2,53.7,30.35,NW,315,1.8,1.8,82,0.00,,,0.00,WUHU21623XXSP,2013-03-29 21:58:00,
2013-03-29 15:11:00,61.7,55.1,30.34,NW,315,0.9,0.9,79,0.00,,,0.00,WUHU21623XXSP,2013-03-29 22:11:00,
2013-03-29 15:16:00,61.7,55.1,30.34,NW,315,0.9,0.9,79,0.00,,,0.00,WUHU21623XXSP,2013-03-29 22:16:00,
2013-03-29 15:21:00,62.4,55.1,30.34,NW,315,0.0,0.9,77,0.00,,,0.00,WUHU21623XXSP,2013-03-29 22:21:00,
2013-03-29 15:26:00,62.2,54.5,30.34,NW,315,0.0,0.9,76,0.00,,,0.00,WUHU21623XXSP,2013-03-29 22:26:00,
2013-03-29 15:31:00,61.5,53.9,30.34,NNW,337,0.0,7.2,76,0.00,,,0.00,WUHU21623XXSP,2013-03-29 22:31:00,
2013-03-29 15:36:00,61.5,54.2,30.34,NW,315,0.0,7.2,77,0.00,,,0.00,WUHU21623XXSP,2013-03-29 22:36:00,
2013-03-29 15:41:00,61.0,53.4,30.34,NNE,22,0.0,0.0,76,0.00,,,0.00,WUHU21623XXSP,2013-03-29 22:41:00,
2013-03-29 15:46:00,60.6,53.1,30.34,NW,315,0.9,0.9,76,0.00,,,0.00,WUHU21623XXSP,2013-03-29 22:46:00,
2013-03-29 15:51:00,60.6,53.4,30.34,NW,315,0.0,0.9,77,0.00,,,0.00,WUHU21623XXSP,2013-03-29 22:51:00,
2013-03-29 15:57:00,61.0,53.8,30.34,NE,45,0.0,0.0,77,0.00,,,0.00,WUHU21623XXSP,2013-03-29 22:57:00,
2013-03-29 16:02:00,61.0,53.8,30.34,WNW,292,0.0,0.0,77,0.00,,,0.00,WUHU21623XXSP,2013-03-29 23:02:00,
2013-03-29 16:07:00,61.0,53.4,30.34,NNW,337,1.3,1.3,76,0.00,,,0.00,WUHU21623XXSP,2013-03-29 23:07:00,
2013-03-29 16:12:00,60.6,53.1,30.34,SW,225,0.0,1.3,76,0.00,,,0.00,WUHU21623XXSP,2013-03-29 23:12:00,
2013-03-29 16:17:00,60.4,52.9,30.33,NW,315,0.0,0.0,76,0.00,,,0.00,WUHU21623XXSP,2013-03-29 23:17:00,
2013-03-29 16:22:00,59.7,52.2,30.34,NW,315,0.9,0.9,76,0.00,,,0.00,WUHU21623XXSP,2013-03-29 23:22:00,
2013-03-29 16:27:00,59.4,52.2,30.33,NNW,337,0.0,0.9,77,0.00,,,0.00,WUHU21623XXSP,2013-03-29 23:27:00,
2013-03-29 16:32:00,59.0,51.8,30.34,NW,315,0.0,0.0,77,0.00,,,0.00,WUHU21623XXSP,2013-03-29 23:32:00,
2013-03-29 16:37:00,58.8,52.0,30.34,West,270,1.1,1.1,78,0.00,,,0.00,WUHU21623XXSP,2013-03-29 23:37:00,
2013-03-29 16:42:00,59.4,52.0,30.34,ESE,112,0.0,1.1,78,0.00,,,0.00,WUHU21623XXSP,2013-03-29 23:42:00,
2013-03-29 16:47:00,59.0,52.5,30.34,NNW,337,0.0,1.1,79,0.00,,,0.00,WUHU21623XXSP,2013-03-29 23:47:00,
2013-03-29 16:52:00,58.5,52.0,30.33,NNW,337,0.0,0.9,79,0.00,,,0.00,WUHU21623XXSP,2013-03-29 23:52:00,
2013-03-29 16:57:00,57.9,51.4,30.33,NNW,337,0.9,0.9,79,0.00,,,0.00,WUHU21623XXSP,2013-03-29 23:57:00,
2013-03-29 17:02:00,57.7,51.3,30.33,NNE,22,0.9,0.9,79,0.00,,,0.00,WUHU21623XXSP,2013-03-30 00:02:00,
2013-03-29 17:07:00,57.4,51.3,30.33,West,270,0.0,0.9,80,0.00,,,0.00,WUHU21623XXSP,2013-03-30 00:07:00,
2013-03-29 17:12:00,57.0,50.9,30.33,ESE,112,0.0,0.0,80,0.00,,,0.00,WUHU21623XXSP,2013-03-30 00:12:00,
2013-03-29 17:17:00,56.5,50.4,30.33,WNW,292,0.0,0.0,80,0.00,,,0.00,WUHU21623XXSP,2013-03-30 00:17:00,
2013-03-29 17:22:00,56.3,50.5,30.32,SSE,157,0.7,0.7,81,0.00,,,0.00,WUHU21623XXSP,2013-03-30 00:22:00,
2013-03-29 17:27:00,56.1,50.3,30.32,NW,315,0.0,0.7,81,0.00,,,0.00,WUHU21623XXSP,2013-03-30 00:27:00,
2013-03-29 17:32:00,55.9,50.5,30.32,South,180,0.0,0.0,82,0.00,,,0.00,WUHU21623XXSP,2013-03-30 00:32:00,
2013-03-29 17:37:00,55.9,50.5,30.32,NW,315,0.7,0.7,82,0.00,,,0.00,WUHU21623XXSP,2013-03-30 00:37:00,
2013-03-29 17:42:00,55.9,50.5,30.32,NNW,337,0.9,0.9,82,0.00,,,0.00,WUHU21623XXSP,2013-03-30 00:42:00,
2013-03-29 17:47:00,55.8,50.3,30.32,NNW,337,1.8,1.8,82,0.00,,,0.00,WUHU21623XXSP,2013-03-30 00:47:00,
2013-03-29 17:52:00,55.8,50.3,30.32,NNW,337,0.0,1.8,82,0.00,,,0.00,WUHU21623XXSP,2013-03-30 00:52:00,
2013-03-29 17:57:00,55.6,50.1,30.31,NNW,337,0.0,0.0,82,0.00,,,0.00,WUHU21623XXSP,2013-03-30 00:57:00,
2013-03-29 18:02:00,55.6,50.4,30.32,NW,315,0.0,0.0,83,0.00,,,0.00,WUHU21623XXSP,2013-03-30 01:02:00,
2013-03-29 18:07:00,55.6,50.4,30.32,NNW,337,0.0,0.9,83,0.00,,,0.00,WUHU21623XXSP,2013-03-30 01:07:00,
2013-03-29 18:12:00,55.2,50.1,30.32,NNW,337,0.0,0.9,83,0.00,,,0.00,WUHU21623XXSP,2013-03-30 01:12:00,
2013-03-29 18:17:00,55.2,50.1,30.31,North,0,0.0,0.0,83,0.00,,,0.00,WUHU21623XXSP,2013-03-30 01:17:00,
2013-03-29 18:22:00,55.0,49.9,30.31,North,0,0.0,0.0,83,0.00,,,0.00,WUHU21623XXSP,2013-03-30 01:22:00,
2013-03-29 18:27:00,55.0,49.9,30.31,North,0,0.0,0.0,83,0.00,,,0.00,WUHU21623XXSP,2013-03-30 01:27:00,
2013-03-29 18:33:00,55.2,50.4,30.31,NW,315,0.0,0.0,84,0.00,,,0.00,WUHU21623XXSP,2013-03-30 01:33:00,
2013-03-29 18:38:00,55.2,50.4,30.30,NW,315,0.0,0.0,84,0.00,,,0.00,WUHU21623XXSP,2013-03-30 01:38:00,
2013-03-29 18:43:00,55.0,50.2,30.31,NNW,337,1.6,1.6,84,0.00,,,0.00,WUHU21623XXSP,2013-03-30 01:43:00,
2013-03-29 18:48:00,55.2,50.4,30.31,North,0,0.0,1.6,84,0.00,,,0.00,WUHU21623XXSP,2013-03-30 01:48:00,
2013-03-29 18:53:00,55.2,50.4,30.31,SSE,157,0.0,1.6,84,0.00,,,0.00,WUHU21623XXSP,2013-03-30 01:53:00,
2013-03-29 18:58:00,55.2,50.4,30.31,NW,315,0.0,0.0,84,0.00,,,0.00,WUHU21623XXSP,2013-03-30 01:58:00,
2013-03-29 19:03:00,55.2,50.4,30.31,North,0,0.0,0.9,84,0.00,,,0.00,WUHU21623XXSP,2013-03-30 02:03:00,
2013-03-29 19:08:00,55.2,50.4,30.31,NNW,337,0.0,0.9,84,0.00,,,0.00,WUHU21623XXSP,2013-03-30 02:08:00,
2013-03-29 19:13:00,55.2,50.4,30.30,ESE,112,0.0,0.9,84,0.00,,,0.00,WUHU21623XXSP,2013-03-30 02:13:00,
2013-03-29 19:18:00,54.7,49.9,30.31,ESE,112,0.0,0.0,84,0.00,,,0.00,WUHU21623XXSP,2013-03-30 02:18:00,
2013-03-29 19:23:00,54.3,49.5,30.31,West,270,0.0,0.0,84,0.00,,,0.00,WUHU21623XXSP,2013-03-30 02:23:00,
2013-03-29 19:28:00,54.1,49.4,30.31,North,0,0.0,0.0,84,0.00,,,0.00,WUHU21623XXSP,2013-03-30 02:28:00,
2013-03-29 19:33:00,53.8,49.0,30.31,ENE,67,0.0,0.0,84,0.00,,,0.00,WUHU21623XXSP,2013-03-30 02:33:00,
2013-03-29 19:38:00,53.4,48.7,30.31,South,180,0.0,0.0,84,0.00,,,0.00,WUHU21623XXSP,2013-03-30 02:38:00,
2013-03-29 19:43:00,53.2,48.8,30.31,South,180,0.0,0.0,85,0.00,,,0.00,WUHU21623XXSP,2013-03-30 02:43:00,
2013-03-29 19:48:00,52.9,48.5,30.31,North,0,0.0,0.0,85,0.00,,,0.00,WUHU21623XXSP,2013-03-30 02:48:00,
2013-03-29 19:53:00,52.5,48.1,30.31,North,0,0.0,0.0,85,0.00,,,0.00,WUHU21623XXSP,2013-03-30 02:53:00,
2013-03-29 19:58:00,52.3,47.9,30.31,North,0,0.0,0.0,85,0.00,,,0.00,WUHU21623XXSP,2013-03-30 02:58:00,
2013-03-29 20:03:00,52.3,48.2,30.31,ESE,112,0.0,0.0,86,0.00,,,0.00,WUHU21623XXSP,2013-03-30 03:03:00,
2013-03-29 20:08:00,52.2,48.1,30.31,ESE,112,0.0,0.0,86,0.00,,,0.00,WUHU21623XXSP,2013-03-30 03:08:00,
2013-03-29 20:13:00,52.0,47.9,30.31,SSW,202,0.0,0.0,86,0.00,,,0.00,WUHU21623XXSP,2013-03-30 03:13:00,
2013-03-29 20:18:00,52.0,47.9,30.31,SSW,202,0.0,0.0,86,0.00,,,0.00,WUHU21623XXSP,2013-03-30 03:18:00,
2013-03-29 20:23:00,51.8,47.7,30.31,SSW,202,0.0,0.0,86,0.00,,,0.00,WUHU21623XXSP,2013-03-30 03:23:00,
2013-03-29 20:28:00,51.6,47.5,30.32,SSW,202,0.0,0.0,86,0.00,,,0.00,WUHU21623XXSP,2013-03-30 03:28:00,
2013-03-29 20:33:00,51.6,47.5,30.32,SSE,157,0.0,0.0,86,0.00,,,0.00,WUHU21623XXSP,2013-03-30 03:33:00,
2013-03-29 20:38:00,51.6,47.5,30.32,SSE,157,0.0,0.0,86,0.00,,,0.00,WUHU21623XXSP,2013-03-30 03:38:00,
2013-03-29 20:43:00,51.4,47.6,30.32,SSE,157,0.0,0.0,87,0.00,,,0.00,WUHU21623XXSP,2013-03-30 03:43:00,
2013-03-29 20:48:00,51.3,47.5,30.32,SSE,157,0.0,0.0,87,0.00,,,0.00,WUHU21623XXSP,2013-03-30 03:48:00,
2013-03-29 20:53:00,51.3,47.5,30.32,SSE,157,0.0,0.0,87,0.00,,,0.00,WUHU21623XXSP,2013-03-30 03:53:00,
2013-03-29 20:58:00,51.1,47.3,30.32,SSE,157,0.0,0.0,87,0.00,,,0.00,WUHU21623XXSP,2013-03-30 03:58:00,
2013-03-29 21:00:00,51.1,47.3,30.32,SSE,157,0.0,0.0,87,0.00,,,0.00,WUHU21623XXSP,2013-03-30 04:00:00,
2013-03-29 21:05:00,50.9,47.1,30.33,SSE,157,0.0,0.0,87,0.00,,,0.00,WUHU21623XXSP,2013-03-30 04:05:00,
2013-03-29 21:10:00,50.9,47.1,30.33,SSE,157,0.0,0.0,87,0.00,,,0.00,WUHU21623XXSP,2013-03-30 04:10:00,
2013-03-29 21:15:00,50.7,46.9,30.32,SSE,157,0.0,0.0,87,0.00,,,0.00,WUHU21623XXSP,2013-03-30 04:15:00,
2013-03-29 21:20:00,50.7,46.9,30.32,SSE,157,0.0,0.0,87,0.00,,,0.00,WUHU21623XXSP,2013-03-30 04:20:00,
2013-03-29 21:25:00,50.5,46.7,30.33,SSE,157,0.0,0.0,87,0.00,,,0.00,WUHU21623XXSP,2013-03-30 04:25:00,
2013-03-29 21:30:00,50.4,46.9,30.33,SSE,157,0.0,0.0,88,0.00,,,0.00,WUHU21623XXSP,2013-03-30 04:30:00,
2013-03-29 21:35:00,50.4,46.9,30.32,SSE,157,0.0,0.0,88,0.00,,,0.00,WUHU21623XXSP,2013-03-30 04:35:00,
2013-03-29 21:40:00,50.2,46.7,30.33,SSE,157,0.0,0.0,88,0.00,,,0.00,WUHU21623XXSP,2013-03-30 04:40:00,
2013-03-29 21:45:00,50.2,46.7,30.32,SSE,157,0.0,0.0,88,0.00,,,0.00,WUHU21623XXSP,2013-03-30 04:45:00,
2013-03-29 21:50:00,50.2,46.7,30.33,SSE,157,0.0,0.0,88,0.00,,,0.00,WUHU21623XXSP,2013-03-30 04:50:00,
2013-03-29 21:55:00,50.2,46.7,30.33,SSE,157,0.0,0.0,88,0.00,,,0.00,WUHU21623XXSP,2013-03-30 04:55:00,
2013-03-29 22:00:00,50.2,46.7,30.33,SSE,157,0.0,0.0,88,0.00,,,0.00,WUHU21623XXSP,2013-03-30 05:00:00,
2013-03-29 22:05:00,50.2,46.7,30.32,SSE,157,0.0,0.0,88,0.00,,,0.00,WUHU21623XXSP,2013-03-30 05:05:00,
2013-03-29 22:10:00,50.2,46.7,30.32,SSE,157,0.0,0.0,88,0.00,,,0.00,WUHU21623XXSP,2013-03-30 05:10:00,
2013-03-29 22:15:00,50.0,46.5,30.33,SSE,157,0.0,0.0,88,0.00,,,0.00,WUHU21623XXSP,2013-03-30 05:15:00,
2013-03-29 22:20:00,49.8,46.3,30.33,SSE,157,0.0,0.0,88,0.00,,,0.00,WUHU21623XXSP,2013-03-30 05:20:00,
2013-03-29 22:25:00,49.8,46.3,30.33,SSE,157,0.0,0.0,88,0.00,,,0.00,WUHU21623XXSP,2013-03-30 05:25:00,
2013-03-29 22:30:00,49.8,46.3,30.33,SSE,157,0.0,0.0,88,0.00,,,0.00,WUHU21623XXSP,2013-03-30 05:30:00,
2013-03-29 22:35:00,49.8,46.3,30.33,SSE,157,0.0,0.0,88,0.00,,,0.00,WUHU21623XXSP,2013-03-30 05:35:00,
2013-03-29 22:40:00,49.6,46.5,30.33,SSE,157,0.0,0.0,89,0.00,,,0.00,WUHU21623XXSP,2013-03-30 05:40:00,
2013-03-29 22:45:00,49.6,46.5,30.33,SSE,157,0.0,0.0,89,0.00,,,0.00,WUHU21623XXSP,2013-03-30 05:45:00,
2013-03-29 22:50:00,49.3,46.1,30.33,SSE,157,0.0,0.0,89,0.00,,,0.00,WUHU21623XXSP,2013-03-30 05:50:00,
2013-03-29 22:56:00,49.3,46.1,30.33,SSE,157,0.0,0.0,89,0.00,,,0.00,WUHU21623XXSP,2013-03-30 05:56:00,
2013-03-29 23:01:00,49.3,46.1,30.32,SSE,157,0.0,0.0,89,0.00,,,0.00,WUHU21623XXSP,2013-03-30 06:01:00,
2013-03-29 23:06:00,49.3,46.1,30.33,SSE,157,0.0,0.0,89,0.00,,,0.00,WUHU21623XXSP,2013-03-30 06:06:00,
2013-03-29 23:11:00,49.3,46.1,30.32,SSE,157,0.0,0.0,89,0.00,,,0.00,WUHU21623XXSP,2013-03-30 06:11:00,
2013-03-29 23:16:00,49.1,46.0,30.32,SSE,157,0.0,0.0,89,0.00,,,0.00,WUHU21623XXSP,2013-03-30 06:16:00,
2013-03-29 23:21:00,49.1,46.0,30.32,SSE,157,0.0,0.0,89,0.00,,,0.00,WUHU21623XXSP,2013-03-30 06:21:00,
2013-03-29 23:26:00,48.9,46.1,30.32,South,180,0.0,0.0,90,0.00,,,0.00,WUHU21623XXSP,2013-03-30 06:26:00,
2013-03-29 23:31:00,48.9,46.1,30.32,South,180,0.0,0.0,90,0.00,,,0.00,WUHU21623XXSP,2013-03-30 06:31:00,
2013-03-29 23:36:00,48.9,46.1,30.32,South,180,0.0,0.0,90,0.00,,,0.00,WUHU21623XXSP,2013-03-30 06:36:00,
2013-03-29 23:41:00,48.7,46.1,30.32,South,180,0.0,0.0,90,0.00,,,0.00,WUHU21623XXSP,2013-03-30 06:41:00,
2013-03-29 23:46:00,48.7,46.0,30.31,South,180,0.0,0.0,90,0.00,,,0.00,WUHU21623XXSP,2013-03-30 06:46:00,
2013-03-29 23:51:00,48.7,46.0,30.31,South,180,0.0,0.0,90,0.00,,,0.00,WUHU21623XXSP,2013-03-30 06:51:00,
2013-03-29 23:56:00,48.7,45.7,30.31,South,180,0.0,0.0,89,0.00,,,0.00,WUHU21623XXSP,2013-03-30 06:56:00,